Time,TemperatureF,DewpointF,PressureIn,WindDirection,WindDirectionDegrees,WindSpeedMPH,WindSpeedGustMPH,Humidity,HourlyPrecipIn,Conditions,Clouds,dailyrainin,SoftwareType,DateUTC
2013-10-03 00:04:00,54.3,35.1,30.10,NE,46,7.0,14.0,48,0.00,,,0.00,meteohub,2013-10-03 07:04:00,
2013-10-03 00:09:00,54.5,35.2,30.10,NE,50,6.0,14.0,48,0.00,,,0.00,meteohub,2013-10-03 07:09:00,
2013-10-03 00:14:00,54.7,34.9,30.10,NE,44,6.0,14.0,47,0.00,,,0.00,meteohub,2013-10-03 07:14:00,
2013-10-03 00:19:00,54.7,34.9,30.10,NE,53,6.0,14.0,47,0.00,,,0.00,meteohub,2013-10-03 07:19:00,
2013-10-03 00:24:00,54.7,35.4,30.10,ENE,62,11.0,14.0,48,0.00,,,0.00,meteohub,2013-10-03 07:24:00,
2013-10-03 00:29:00,54.5,35.2,30.10,NE,46,8.0,15.0,48,0.00,,,0.00,meteohub,2013-10-03 07:29:00,
2013-10-03 00:34:00,54.3,35.1,30.10,NE,55,7.0,17.0,48,0.00,,,0.00,meteohub,2013-10-03 07:34:00,
2013-10-03 00:39:00,54.7,34.3,30.10,ENE,57,16.0,17.0,46,0.00,,,0.00,meteohub,2013-10-03 07:39:00,
2013-10-03 00:44:00,55.0,34.7,30.10,NE,43,6.0,17.0,46,0.00,,,0.00,meteohub,2013-10-03 07:44:00,
2013-10-03 00:49:00,55.0,34.2,30.11,NE,42,12.0,16.0,45,0.00,,,0.00,meteohub,2013-10-03 07:49:00,
2013-10-03 00:54:00,55.2,34.9,30.11,NE,55,9.0,16.0,46,0.00,,,0.00,meteohub,2013-10-03 07:54:00,
2013-10-03 00:59:00,55.0,34.7,30.11,NE,55,8.0,14.0,46,0.00,,,0.00,meteohub,2013-10-03 07:59:00,
2013-10-03 01:04:00,55.0,34.7,30.11,ENE,63,10.0,13.0,46,0.00,,,0.00,meteohub,2013-10-03 08:04:00,
2013-10-03 01:09:00,55.0,34.2,30.11,ENE,67,11.0,13.0,45,0.00,,,0.00,meteohub,2013-10-03 08:09:00,
2013-10-03 01:14:00,55.0,34.7,30.11,NE,38,8.0,13.0,46,0.00,,,0.00,meteohub,2013-10-03 08:14:00,
2013-10-03 01:19:00,55.0,34.2,30.11,NE,55,8.0,12.0,45,0.00,,,0.00,meteohub,2013-10-03 08:19:00,
2013-10-03 01:24:00,55.0,34.7,30.11,ENE,74,9.0,14.0,46,0.00,,,0.00,meteohub,2013-10-03 08:24:00,
2013-10-03 01:29:00,54.9,34.5,30.11,NE,52,11.0,14.0,46,0.00,,,0.00,meteohub,2013-10-03 08:29:00,
2013-10-03 01:34:00,54.9,34.5,30.11,ENE,63,7.0,14.0,46,0.00,,,0.00,meteohub,2013-10-03 08:34:00,
2013-10-03 01:39:00,54.5,34.7,30.12,ENE,58,3.0,12.0,47,0.00,,,0.00,meteohub,2013-10-03 08:39:00,
2013-10-03 01:44:00,54.1,34.9,30.11,ENE,67,7.0,13.0,48,0.00,,,0.00,meteohub,2013-10-03 08:44:00,
2013-10-03 01:50:00,53.8,35.1,30.12,NE,41,7.0,13.0,49,0.00,,,0.00,meteohub,2013-10-03 08:50:00,
2013-10-03 01:55:00,53.4,34.7,30.12,NE,53,6.0,13.0,49,0.00,,,0.00,meteohub,2013-10-03 08:55:00,
2013-10-03 02:00:00,53.4,34.7,30.12,NE,47,4.0,13.0,49,0.00,,,0.00,meteohub,2013-10-03 09:00:00,
2013-10-03 02:05:00,53.4,34.2,30.12,ENE,66,9.0,11.0,48,0.00,,,0.00,meteohub,2013-10-03 09:05:00,
2013-10-03 02:10:00,53.8,34.5,30.12,ENE,59,11.0,11.0,48,0.00,,,0.00,meteohub,2013-10-03 09:10:00,
2013-10-03 02:15:00,54.0,34.2,30.12,ENE,67,7.0,11.0,47,0.00,,,0.00,meteohub,2013-10-03 09:15:00,
2013-10-03 02:20:00,54.0,34.7,30.12,NNE,19,6.0,12.0,48,0.00,,,0.00,meteohub,2013-10-03 09:20:00,
2013-10-03 02:25:00,53.4,35.2,30.12,NE,39,5.0,12.0,50,0.00,,,0.00,meteohub,2013-10-03 09:25:00,
2013-10-03 02:30:00,53.1,35.4,30.13,NE,48,10.0,13.0,51,0.00,,,0.00,meteohub,2013-10-03 09:30:00,
2013-10-03 02:35:00,52.9,35.2,30.12,NE,42,13.0,13.0,51,0.00,,,0.00,meteohub,2013-10-03 09:35:00,
2013-10-03 02:40:00,52.5,35.4,30.12,NE,52,9.0,15.0,52,0.00,,,0.00,meteohub,2013-10-03 09:40:00,
2013-10-03 02:45:00,52.5,35.4,30.12,NE,47,6.0,15.0,52,0.00,,,0.00,meteohub,2013-10-03 09:45:00,
2013-10-03 02:50:00,52.3,35.2,30.12,NE,55,9.0,14.0,52,0.00,,,0.00,meteohub,2013-10-03 09:50:00,
2013-10-03 02:55:00,52.3,35.2,30.13,ENE,57,8.0,13.0,52,0.00,,,0.00,meteohub,2013-10-03 09:55:00,
2013-10-03 03:00:00,52.5,34.9,30.12,NNE,28,5.0,15.0,51,0.00,,,0.00,meteohub,2013-10-03 10:00:00,
2013-10-03 03:05:00,52.7,34.5,30.13,NE,36,7.0,15.0,50,0.00,,,0.00,meteohub,2013-10-03 10:05:00,
2013-10-03 03:10:00,52.9,34.7,30.12,NE,53,5.0,15.0,50,0.00,,,0.00,meteohub,2013-10-03 10:10:00,
2013-10-03 03:15:00,52.5,34.3,30.12,NNE,27,4.0,12.0,50,0.00,,,0.00,meteohub,2013-10-03 10:15:00,
2013-10-03 03:20:00,52.5,34.3,30.12,NE,42,7.0,12.0,50,0.00,,,0.00,meteohub,2013-10-03 10:20:00,
2013-10-03 03:25:00,52.9,34.7,30.12,NE,51,8.0,12.0,50,0.00,,,0.00,meteohub,2013-10-03 10:25:00,
2013-10-03 03:30:00,52.9,34.7,30.13,NNE,16,6.0,11.0,50,0.00,,,0.00,meteohub,2013-10-03 10:30:00,
2013-10-03 03:35:00,53.1,34.3,30.13,NNE,14,6.0,11.0,49,0.00,,,0.00,meteohub,2013-10-03 10:35:00,
2013-10-03 03:40:00,53.1,34.3,30.13,NE,38,7.0,13.0,49,0.00,,,0.00,meteohub,2013-10-03 10:40:00,
2013-10-03 03:45:00,52.9,34.7,30.13,NE,42,7.0,13.0,50,0.00,,,0.00,meteohub,2013-10-03 10:45:00,
2013-10-03 03:50:00,52.3,35.2,30.13,NNE,23,11.0,13.0,52,0.00,,,0.00,meteohub,2013-10-03 10:50:00,
2013-10-03 03:55:00,52.0,34.9,30.13,ENE,61,9.0,13.0,52,0.00,,,0.00,meteohub,2013-10-03 10:55:00,
2013-10-03 04:00:00,51.8,35.2,30.12,NE,46,7.0,14.0,53,0.00,,,0.00,meteohub,2013-10-03 11:00:00,
2013-10-03 04:05:00,51.6,35.1,30.12,NE,43,10.0,14.0,53,0.00,,,0.00,meteohub,2013-10-03 11:05:00,
2013-10-03 04:10:00,51.8,34.2,30.13,NNE,29,6.0,14.0,51,0.00,,,0.00,meteohub,2013-10-03 11:10:00,
2013-10-03 04:15:00,52.0,34.3,30.13,ENE,63,9.0,14.0,51,0.00,,,0.00,meteohub,2013-10-03 11:15:00,
2013-10-03 04:20:00,52.0,34.3,30.13,NE,42,8.0,19.0,51,0.00,,,0.00,meteohub,2013-10-03 11:20:00,
2013-10-03 04:25:00,51.8,34.7,30.13,NE,38,11.0,19.0,52,0.00,,,0.00,meteohub,2013-10-03 11:25:00,
2013-10-03 04:30:00,51.4,34.9,30.13,ENE,57,11.0,19.0,53,0.00,,,0.00,meteohub,2013-10-03 11:30:00,
2013-10-03 04:35:00,51.1,34.5,30.13,NE,35,7.0,16.0,53,0.00,,,0.00,meteohub,2013-10-03 11:35:00,
2013-10-03 04:40:00,50.7,34.7,30.13,NNE,29,6.0,16.0,54,0.00,,,0.00,meteohub,2013-10-03 11:40:00,
2013-10-03 04:45:00,50.5,34.5,30.13,ENE,62,8.0,16.0,54,0.00,,,0.00,meteohub,2013-10-03 11:45:00,
2013-10-03 04:50:00,50.5,34.5,30.13,ENE,61,13.0,15.0,54,0.00,,,0.00,meteohub,2013-10-03 11:50:00,
2013-10-03 04:55:00,50.5,34.0,30.12,NNE,28,6.0,15.0,53,0.00,,,0.00,meteohub,2013-10-03 11:55:00,
2013-10-03 05:00:00,50.7,34.2,30.12,North,11,6.0,15.0,53,0.00,,,0.00,meteohub,2013-10-03 12:00:00,
2013-10-03 05:05:00,50.9,34.0,30.12,NE,34,4.0,15.0,52,0.00,,,0.00,meteohub,2013-10-03 12:05:00,
2013-10-03 05:10:00,51.1,33.6,30.13,ENE,57,7.0,15.0,51,0.00,,,0.00,meteohub,2013-10-03 12:10:00,
2013-10-03 05:15:00,51.3,33.3,30.13,NE,36,11.0,14.0,50,0.00,,,0.00,meteohub,2013-10-03 12:15:00,
2013-10-03 05:20:00,51.4,32.9,30.13,NNE,21,7.0,16.0,49,0.00,,,0.00,meteohub,2013-10-03 12:20:00,
2013-10-03 05:25:00,51.6,33.1,30.13,NE,35,8.0,16.0,49,0.00,,,0.00,meteohub,2013-10-03 12:25:00,
2013-10-03 05:30:00,51.6,32.5,30.13,NE,49,6.0,16.0,48,0.00,,,0.00,meteohub,2013-10-03 12:30:00,
2013-10-03 05:36:00,51.6,33.1,30.13,ENE,59,7.0,14.0,49,0.00,,,0.00,meteohub,2013-10-03 12:36:00,
2013-10-03 05:41:00,51.4,32.9,30.13,NE,35,8.0,14.0,49,0.00,,,0.00,meteohub,2013-10-03 12:41:00,
2013-10-03 05:46:00,51.4,32.9,30.13,NNE,20,5.0,14.0,49,0.00,,,0.00,meteohub,2013-10-03 12:46:00,
2013-10-03 05:51:00,51.3,32.7,30.13,North,355,10.0,12.0,49,0.00,,,0.00,meteohub,2013-10-03 12:51:00,
2013-10-03 05:56:00,51.3,33.3,30.13,ENE,57,7.0,12.0,50,0.00,,,0.00,meteohub,2013-10-03 12:56:00,
2013-10-03 06:01:00,51.1,33.1,30.13,NNE,15,5.0,12.0,50,0.00,,,0.00,meteohub,2013-10-03 13:01:00,
2013-10-03 06:06:00,50.7,33.3,30.14,ENE,59,4.0,10.0,51,0.00,,,0.00,meteohub,2013-10-03 13:06:00,
2013-10-03 06:11:00,50.7,33.3,30.13,NNE,29,6.0,10.0,51,0.00,,,0.00,meteohub,2013-10-03 13:11:00,
2013-10-03 06:16:00,50.5,33.6,30.13,NNE,26,6.0,10.0,52,0.00,,,0.00,meteohub,2013-10-03 13:16:00,
2013-10-03 06:21:00,50.4,33.4,30.14,North,5,5.0,10.0,52,0.00,,,0.00,meteohub,2013-10-03 13:21:00,
2013-10-03 06:26:00,50.4,33.4,30.14,ENE,76,10.0,12.0,52,0.00,,,0.00,meteohub,2013-10-03 13:26:00,
2013-10-03 06:31:00,50.4,33.8,30.14,ENE,67,9.0,12.0,53,0.00,,,0.00,meteohub,2013-10-03 13:31:00,
2013-10-03 06:36:00,50.4,33.8,30.14,NNE,17,9.0,12.0,53,0.00,,,0.00,meteohub,2013-10-03 13:36:00,
2013-10-03 06:41:00,50.2,33.6,30.14,NE,38,5.0,12.0,53,0.00,,,0.00,meteohub,2013-10-03 13:41:00,
2013-10-03 06:46:00,50.0,33.6,30.13,NNE,24,6.0,14.0,53,0.00,,,0.00,meteohub,2013-10-03 13:46:00,
2013-10-03 06:51:00,50.0,33.6,30.14,ENE,61,7.0,14.0,53,0.00,,,0.00,meteohub,2013-10-03 13:51:00,
2013-10-03 06:56:00,49.8,33.4,30.14,NNE,30,8.0,14.0,53,0.00,,,0.00,meteohub,2013-10-03 13:56:00,
2013-10-03 07:01:00,49.8,33.4,30.14,ENE,58,10.0,13.0,53,0.00,,,0.00,meteohub,2013-10-03 14:01:00,
2013-10-03 07:06:00,49.8,33.4,30.14,NE,49,7.0,15.0,53,0.00,,,0.00,meteohub,2013-10-03 14:06:00,
2013-10-03 07:11:00,49.6,33.6,30.14,North,5,6.0,15.0,54,0.00,,,0.00,meteohub,2013-10-03 14:11:00,
2013-10-03 07:16:00,49.5,33.4,30.14,NE,47,5.0,15.0,54,0.00,,,0.00,meteohub,2013-10-03 14:16:00,
2013-10-03 07:21:00,49.1,33.6,30.14,NE,47,6.0,11.0,55,0.00,,,0.00,meteohub,2013-10-03 14:21:00,
2013-10-03 07:26:00,48.9,33.1,30.14,North,350,7.0,10.0,54,0.00,,,0.00,meteohub,2013-10-03 14:26:00,
2013-10-03 07:31:00,49.3,32.9,30.14,NE,41,5.0,10.0,53,0.00,,,0.00,meteohub,2013-10-03 14:31:00,
2013-10-03 07:36:00,49.5,33.1,30.14,NE,45,6.0,11.0,53,0.00,,,0.00,meteohub,2013-10-03 14:36:00,
2013-10-03 07:41:00,49.6,32.7,30.14,NNE,21,5.0,11.0,52,0.00,,,0.00,meteohub,2013-10-03 14:41:00,
2013-10-03 07:46:00,49.8,32.9,30.14,ENE,59,5.0,11.0,52,0.00,,,0.00,meteohub,2013-10-03 14:46:00,
2013-10-03 07:51:00,49.8,32.9,30.14,NNW,348,3.0,10.0,52,0.00,,,0.00,meteohub,2013-10-03 14:51:00,
2013-10-03 07:56:00,49.8,32.9,30.15,NE,46,4.0,10.0,52,0.00,,,0.00,meteohub,2013-10-03 14:56:00,
2013-10-03 08:01:00,50.2,32.7,30.14,NE,49,6.0,12.0,51,0.00,,,0.00,meteohub,2013-10-03 15:01:00,
2013-10-03 08:06:00,50.4,32.9,30.14,North,5,8.0,16.0,51,0.00,,,0.00,meteohub,2013-10-03 15:06:00,
2013-10-03 08:11:00,50.5,33.1,30.14,NNE,27,5.0,16.0,51,0.00,,,0.00,meteohub,2013-10-03 15:11:00,
2013-10-03 08:16:00,50.7,33.3,30.15,NE,45,12.0,16.0,51,0.00,,,0.00,meteohub,2013-10-03 15:16:00,
2013-10-03 08:21:00,50.7,32.7,30.15,NE,40,5.0,15.0,50,0.00,,,0.00,meteohub,2013-10-03 15:21:00,
2013-10-03 08:27:00,51.1,33.1,30.16,NNE,28,4.0,18.0,50,0.00,,,0.00,meteohub,2013-10-03 15:27:00,
2013-10-03 08:32:00,51.3,32.7,30.15,NE,55,8.0,18.0,49,0.00,,,0.00,meteohub,2013-10-03 15:32:00,
2013-10-03 08:37:00,51.4,32.9,30.15,North,11,8.0,18.0,49,0.00,,,0.00,meteohub,2013-10-03 15:37:00,
2013-10-03 08:42:00,51.6,32.5,30.15,NNE,32,10.0,18.0,48,0.00,,,0.00,meteohub,2013-10-03 15:42:00,
2013-10-03 08:47:00,51.8,32.7,30.15,NW,313,4.0,18.0,48,0.00,,,0.00,meteohub,2013-10-03 15:47:00,
2013-10-03 08:52:00,52.0,32.4,30.15,NE,45,6.0,18.0,47,0.00,,,0.00,meteohub,2013-10-03 15:52:00,
2013-10-03 08:57:00,52.2,32.5,30.15,ENE,57,7.0,18.0,47,0.00,,,0.00,meteohub,2013-10-03 15:57:00,
2013-10-03 09:02:00,52.3,32.2,30.15,NNE,30,8.0,16.0,46,0.00,,,0.00,meteohub,2013-10-03 16:02:00,
2013-10-03 09:07:00,52.5,32.9,30.16,ENE,57,7.0,16.0,47,0.00,,,0.00,meteohub,2013-10-03 16:07:00,
2013-10-03 09:12:00,52.9,33.3,30.16,NNW,336,6.0,16.0,47,0.00,,,0.00,meteohub,2013-10-03 16:12:00,
2013-10-03 09:17:00,52.9,33.3,30.16,NNW,348,6.0,16.0,47,0.00,,,0.00,meteohub,2013-10-03 16:17:00,
2013-10-03 09:22:00,53.1,33.4,30.16,NE,56,8.0,12.0,47,0.00,,,0.00,meteohub,2013-10-03 16:22:00,
2013-10-03 09:27:00,53.2,33.1,30.17,ENE,63,15.0,15.0,46,0.00,,,0.00,meteohub,2013-10-03 16:27:00,
2013-10-03 09:32:00,53.6,33.3,30.17,ENE,60,7.0,15.0,46,0.00,,,0.00,meteohub,2013-10-03 16:32:00,
2013-10-03 09:37:00,53.8,34.0,30.17,NE,38,5.0,15.0,47,0.00,,,0.00,meteohub,2013-10-03 16:37:00,
2013-10-03 09:42:00,54.1,33.8,30.17,WNW,303,4.0,15.0,46,0.00,,,0.00,meteohub,2013-10-03 16:42:00,
2013-10-03 09:47:00,54.3,33.4,30.17,North,9,7.0,17.0,45,0.00,,,0.00,meteohub,2013-10-03 16:47:00,
2013-10-03 09:52:00,54.7,33.8,30.17,NNW,348,3.0,17.0,45,0.00,,,0.00,meteohub,2013-10-03 16:52:00,
2013-10-03 09:57:00,55.0,34.2,30.17,NE,40,7.0,17.0,45,0.00,,,0.00,meteohub,2013-10-03 16:57:00,
2013-10-03 10:02:00,55.4,34.3,30.17,NNE,17,8.0,14.0,45,0.00,,,0.00,meteohub,2013-10-03 17:02:00,
2013-10-03 10:07:00,55.9,34.3,30.17,NW,321,4.0,18.0,44,0.00,,,0.00,meteohub,2013-10-03 17:07:00,
2013-10-03 10:12:00,56.5,34.3,30.17,NW,311,11.0,18.0,43,0.00,,,0.00,meteohub,2013-10-03 17:12:00,
2013-10-03 10:17:00,56.8,33.4,30.16,NNE,22,9.0,18.0,41,0.00,,,0.00,meteohub,2013-10-03 17:17:00,
2013-10-03 10:22:00,57.4,33.8,30.17,NNE,21,7.0,16.0,41,0.00,,,0.00,meteohub,2013-10-03 17:22:00,
2013-10-03 10:27:00,57.9,31.8,30.16,North,5,18.0,19.0,37,0.00,,,0.00,meteohub,2013-10-03 17:27:00,
2013-10-03 10:32:00,57.9,30.4,30.16,NNW,335,10.0,24.0,35,0.00,,,0.00,meteohub,2013-10-03 17:32:00,
2013-10-03 10:37:00,58.3,31.5,30.16,NNE,19,9.0,25.0,36,0.00,,,0.00,meteohub,2013-10-03 17:37:00,
2013-10-03 10:42:00,58.8,30.6,30.16,ENE,62,14.0,25.0,34,0.00,,,0.00,meteohub,2013-10-03 17:42:00,
2013-10-03 10:47:00,58.6,30.4,30.15,NE,34,13.0,25.0,34,0.00,,,0.00,meteohub,2013-10-03 17:47:00,
2013-10-03 10:52:00,58.6,29.7,30.15,ENE,64,13.0,25.0,33,0.00,,,0.00,meteohub,2013-10-03 17:52:00,
2013-10-03 10:57:00,59.2,30.7,30.15,ENE,67,8.0,25.0,34,0.00,,,0.00,meteohub,2013-10-03 17:57:00,
2013-10-03 11:02:00,59.2,30.0,30.15,ENE,69,11.0,25.0,33,0.00,,,0.00,meteohub,2013-10-03 18:02:00,
2013-10-03 11:07:00,59.2,30.0,30.15,NNE,26,13.0,26.0,33,0.00,,,0.00,meteohub,2013-10-03 18:07:00,
2013-10-03 11:12:00,59.4,30.2,30.15,NNE,12,14.0,26.0,33,0.00,,,0.00,meteohub,2013-10-03 18:12:00,
2013-10-03 11:17:00,59.5,29.7,30.15,ENE,62,13.0,26.0,32,0.00,,,0.00,meteohub,2013-10-03 18:17:00,
2013-10-03 11:22:00,60.1,30.2,30.15,North,9,11.0,26.0,32,0.00,,,0.00,meteohub,2013-10-03 18:22:00,
2013-10-03 11:27:00,60.1,29.3,30.15,NNE,23,11.0,25.0,31,0.00,,,0.00,meteohub,2013-10-03 18:27:00,
2013-10-03 11:32:00,60.3,30.2,30.15,ENE,65,13.0,25.0,32,0.00,,,0.00,meteohub,2013-10-03 18:32:00,
2013-10-03 11:37:00,60.4,30.4,30.15,North,5,13.0,22.0,32,0.00,,,0.00,meteohub,2013-10-03 18:37:00,
2013-10-03 11:42:00,60.6,29.8,30.16,North,0,12.0,22.0,31,0.00,,,0.00,meteohub,2013-10-03 18:42:00,
2013-10-03 11:47:00,61.0,30.2,30.16,NE,38,18.0,21.0,31,0.00,,,0.00,meteohub,2013-10-03 18:47:00,
2013-10-03 11:52:00,61.0,30.9,30.16,NE,55,10.0,26.0,32,0.00,,,0.00,meteohub,2013-10-03 18:52:00,
2013-10-03 11:57:00,61.0,31.6,30.15,NE,43,11.0,26.0,33,0.00,,,0.00,meteohub,2013-10-03 18:57:00,
2013-10-03 12:02:00,61.5,30.6,30.15,NNE,23,5.0,26.0,31,0.00,,,0.00,meteohub,2013-10-03 19:02:00,
2013-10-03 12:07:00,62.2,32.7,30.15,North,5,4.0,20.0,33,0.00,,,0.00,meteohub,2013-10-03 19:07:00,
2013-10-03 12:12:00,62.4,31.5,30.15,ENE,65,10.0,18.0,31,0.00,,,0.00,meteohub,2013-10-03 19:12:00,
2013-10-03 12:16:00,62.6,31.5,30.15,NE,49,13.0,17.0,31,0.00,,,0.00,meteohub,2013-10-03 19:16:00,
2013-10-03 12:21:00,62.6,31.5,30.14,ENE,61,8.0,17.0,31,0.00,,,0.00,meteohub,2013-10-03 19:21:00,
2013-10-03 12:26:00,62.8,30.9,30.14,North,0,8.0,19.0,30,0.00,,,0.00,meteohub,2013-10-03 19:26:00,
2013-10-03 12:31:00,63.0,31.1,30.14,NE,39,11.0,19.0,30,0.00,,,0.00,meteohub,2013-10-03 19:31:00,
2013-10-03 12:36:00,63.3,30.6,30.14,NE,51,10.0,19.0,29,0.00,,,0.00,meteohub,2013-10-03 19:36:00,
2013-10-03 12:42:00,63.3,28.8,30.13,NNE,23,12.0,17.0,27,0.00,,,0.00,meteohub,2013-10-03 19:42:00,
2013-10-03 12:47:00,63.3,27.9,30.13,North,355,8.0,25.0,26,0.00,,,0.00,meteohub,2013-10-03 19:47:00,
2013-10-03 12:52:00,63.9,28.2,30.13,NW,320,11.0,25.0,26,0.00,,,0.00,meteohub,2013-10-03 19:52:00,
2013-10-03 12:57:00,64.2,28.6,30.13,ENE,59,9.0,25.0,26,0.00,,,0.00,meteohub,2013-10-03 19:57:00,
2013-10-03 13:02:00,64.0,28.4,30.13,North,9,8.0,16.0,26,0.00,,,0.00,meteohub,2013-10-03 20:02:00,
2013-10-03 13:07:00,64.2,27.7,30.13,NNE,15,13.0,16.0,25,0.00,,,0.00,meteohub,2013-10-03 20:07:00,
2013-10-03 13:12:00,64.2,27.7,30.13,North,0,7.0,20.0,25,0.00,,,0.00,meteohub,2013-10-03 20:12:00,
2013-10-03 13:17:00,64.6,28.0,30.13,NE,45,10.0,20.0,25,0.00,,,0.00,meteohub,2013-10-03 20:17:00,
2013-10-03 13:22:00,64.8,28.0,30.13,NNE,14,7.0,20.0,25,0.00,,,0.00,meteohub,2013-10-03 20:22:00,
2013-10-03 13:27:00,65.1,25.3,30.13,NE,44,6.0,16.0,22,0.00,,,0.00,meteohub,2013-10-03 20:27:00,
2013-10-03 13:32:00,65.5,26.8,30.13,North,355,5.0,17.0,23,0.00,,,0.00,meteohub,2013-10-03 20:32:00,
2013-10-03 13:37:00,65.1,25.3,30.12,North,0,11.0,17.0,22,0.00,,,0.00,meteohub,2013-10-03 20:37:00,
2013-10-03 13:42:00,64.9,24.1,30.12,ENE,70,12.0,18.0,21,0.00,,,0.00,meteohub,2013-10-03 20:42:00,
2013-10-03 13:47:00,64.6,25.9,30.12,NNE,32,6.0,18.0,23,0.00,,,0.00,meteohub,2013-10-03 20:47:00,
2013-10-03 13:52:00,64.9,26.2,30.12,ENE,62,9.0,18.0,23,0.00,,,0.00,meteohub,2013-10-03 20:52:00,
2013-10-03 13:57:00,64.9,25.2,30.12,NE,44,10.0,18.0,22,0.00,,,0.00,meteohub,2013-10-03 20:57:00,
2013-10-03 14:02:00,64.8,27.1,30.12,NE,47,7.0,21.0,24,0.00,,,0.00,meteohub,2013-10-03 21:02:00,
2013-10-03 14:07:00,65.1,26.4,30.12,WNW,298,6.0,21.0,23,0.00,,,0.00,meteohub,2013-10-03 21:07:00,
2013-10-03 14:12:00,65.3,28.6,30.12,ENE,67,11.0,22.0,25,0.00,,,0.00,meteohub,2013-10-03 21:12:00,
2013-10-03 14:17:00,65.5,26.8,30.11,North,355,7.0,22.0,23,0.00,,,0.00,meteohub,2013-10-03 21:17:00,
2013-10-03 14:22:00,65.1,28.4,30.12,North,355,6.0,22.0,25,0.00,,,0.00,meteohub,2013-10-03 21:22:00,
2013-10-03 14:27:00,65.5,26.8,30.12,NNE,29,7.0,22.0,23,0.00,,,0.00,meteohub,2013-10-03 21:27:00,
2013-10-03 14:32:00,65.5,26.8,30.12,NE,43,10.0,22.0,23,0.00,,,0.00,meteohub,2013-10-03 21:32:00,
2013-10-03 14:37:00,65.5,26.8,30.12,ENE,63,19.0,22.0,23,0.00,,,0.00,meteohub,2013-10-03 21:37:00,
2013-10-03 14:42:00,65.5,26.8,30.12,NE,42,7.0,22.0,23,0.00,,,0.00,meteohub,2013-10-03 21:42:00,
2013-10-03 14:47:00,65.7,28.9,30.12,NNW,337,8.0,21.0,25,0.00,,,0.00,meteohub,2013-10-03 21:47:00,
2013-10-03 14:52:00,65.8,27.0,30.12,NE,53,7.0,21.0,23,0.00,,,0.00,meteohub,2013-10-03 21:52:00,
2013-10-03 14:57:00,65.8,28.0,30.12,NNE,19,7.0,16.0,24,0.00,,,0.00,meteohub,2013-10-03 21:57:00,
2013-10-03 15:02:00,65.7,25.7,30.12,NE,49,14.0,18.0,22,0.00,,,0.00,meteohub,2013-10-03 22:02:00,
2013-10-03 15:07:00,65.3,26.6,30.12,North,5,13.0,18.0,23,0.00,,,0.00,meteohub,2013-10-03 22:07:00,
2013-10-03 15:12:00,65.1,27.5,30.12,North,0,10.0,25.0,24,0.00,,,0.00,meteohub,2013-10-03 22:12:00,
2013-10-03 15:17:00,65.5,26.8,30.12,NNE,32,15.0,25.0,23,0.00,,,0.00,meteohub,2013-10-03 22:17:00,
2013-10-03 15:22:00,65.7,27.9,30.12,NE,41,10.0,25.0,24,0.00,,,0.00,meteohub,2013-10-03 22:22:00,
2013-10-03 15:27:00,65.5,25.7,30.12,NNW,339,12.0,21.0,22,0.00,,,0.00,meteohub,2013-10-03 22:27:00,
2013-10-03 15:32:00,65.3,26.6,30.12,NW,323,8.0,21.0,23,0.00,,,0.00,meteohub,2013-10-03 22:32:00,
2013-10-03 15:37:00,65.7,26.8,30.11,NNE,13,10.0,20.0,23,0.00,,,0.00,meteohub,2013-10-03 22:37:00,
2013-10-03 15:42:00,65.7,26.8,30.11,ENE,59,11.0,19.0,23,0.00,,,0.00,meteohub,2013-10-03 22:42:00,
2013-10-03 15:47:00,65.7,26.8,30.12,ENE,70,14.0,24.0,23,0.00,,,0.00,meteohub,2013-10-03 22:47:00,
2013-10-03 15:52:00,65.8,27.0,30.11,NNE,12,8.0,24.0,23,0.00,,,0.00,meteohub,2013-10-03 22:52:00,
2013-10-03 15:57:00,66.0,27.1,30.11,North,5,14.0,24.0,23,0.00,,,0.00,meteohub,2013-10-03 22:57:00,
2013-10-03 16:02:00,66.0,27.1,30.11,NNW,329,9.0,18.0,23,0.00,,,0.00,meteohub,2013-10-03 23:02:00,
2013-10-03 16:07:00,66.0,27.1,30.11,NNE,16,7.0,17.0,23,0.00,,,0.00,meteohub,2013-10-03 23:07:00,
2013-10-03 16:12:00,65.8,27.0,30.11,ENE,61,9.0,17.0,23,0.00,,,0.00,meteohub,2013-10-03 23:12:00,
2013-10-03 16:17:00,65.7,26.8,30.11,NNW,331,4.0,18.0,23,0.00,,,0.00,meteohub,2013-10-03 23:17:00,
2013-10-03 16:22:00,65.7,27.9,30.11,North,355,5.0,18.0,24,0.00,,,0.00,meteohub,2013-10-03 23:22:00,
2013-10-03 16:27:00,65.8,27.0,30.11,ENE,59,20.0,20.0,23,0.00,,,0.00,meteohub,2013-10-03 23:27:00,
2013-10-03 16:32:00,65.5,26.8,30.11,NE,36,7.0,21.0,23,0.00,,,0.00,meteohub,2013-10-03 23:32:00,
2013-10-03 16:37:00,65.5,26.8,30.11,NNW,342,6.0,21.0,23,0.00,,,0.00,meteohub,2013-10-03 23:37:00,
2013-10-03 16:42:00,65.7,27.9,30.11,North,355,9.0,21.0,24,0.00,,,0.00,meteohub,2013-10-03 23:42:00,
2013-10-03 16:47:00,65.7,27.9,30.11,NNE,28,14.0,16.0,24,0.00,,,0.00,meteohub,2013-10-03 23:47:00,
2013-10-03 16:52:00,65.7,27.9,30.10,North,0,7.0,17.0,24,0.00,,,0.00,meteohub,2013-10-03 23:52:00,
2013-10-03 16:57:00,65.7,26.8,30.10,East,81,8.0,17.0,23,0.00,,,0.00,meteohub,2013-10-03 23:57:00,
2013-10-03 17:02:00,65.7,26.8,30.10,North,355,9.0,17.0,23,0.00,,,0.00,meteohub,2013-10-04 00:02:00,
2013-10-03 17:07:00,65.5,27.7,30.10,NE,38,9.0,23.0,24,0.00,,,0.00,meteohub,2013-10-04 00:07:00,
2013-10-03 17:12:00,65.3,28.6,30.10,NE,42,6.0,23.0,25,0.00,,,0.00,meteohub,2013-10-04 00:12:00,
2013-10-03 17:17:00,65.5,27.7,30.11,ENE,70,10.0,23.0,24,0.00,,,0.00,meteohub,2013-10-04 00:17:00,
2013-10-03 17:22:00,65.3,27.5,30.10,NNW,347,10.0,17.0,24,0.00,,,0.00,meteohub,2013-10-04 00:22:00,
2013-10-03 17:27:00,65.1,27.5,30.10,NE,35,7.0,18.0,24,0.00,,,0.00,meteohub,2013-10-04 00:27:00,
2013-10-03 17:32:00,65.1,27.5,30.11,North,355,7.0,19.0,24,0.00,,,0.00,meteohub,2013-10-04 00:32:00,
2013-10-03 17:37:00,64.9,27.3,30.10,North,355,8.0,19.0,24,0.00,,,0.00,meteohub,2013-10-04 00:37:00,
2013-10-03 17:41:00,64.9,27.3,30.10,NE,44,6.0,19.0,24,0.00,,,0.00,meteohub,2013-10-04 00:41:00,
2013-10-03 17:47:00,64.8,27.1,30.10,NE,38,9.0,17.0,24,0.00,,,0.00,meteohub,2013-10-04 00:47:00,
2013-10-03 17:52:00,64.8,27.1,30.10,ENE,67,10.0,18.0,24,0.00,,,0.00,meteohub,2013-10-04 00:52:00,
2013-10-03 17:57:00,64.6,27.0,30.10,NE,44,9.0,18.0,24,0.00,,,0.00,meteohub,2013-10-04 00:57:00,
2013-10-03 18:02:00,64.6,27.0,30.10,NNW,346,9.0,18.0,24,0.00,,,0.00,meteohub,2013-10-04 01:02:00,
2013-10-03 18:07:00,64.4,26.8,30.10,ENE,63,10.0,17.0,24,0.00,,,0.00,meteohub,2013-10-04 01:07:00,
2013-10-03 18:12:00,64.2,26.6,30.10,NNW,336,3.0,17.0,24,0.00,,,0.00,meteohub,2013-10-04 01:12:00,
2013-10-03 18:17:00,64.2,26.6,30.10,NE,49,13.0,22.0,24,0.00,,,0.00,meteohub,2013-10-04 01:17:00,
2013-10-03 18:22:00,64.0,26.6,30.10,NE,36,11.0,24.0,24,0.00,,,0.00,meteohub,2013-10-04 01:22:00,
2013-10-03 18:27:00,63.9,26.4,30.11,North,5,5.0,24.0,24,0.00,,,0.00,meteohub,2013-10-04 01:27:00,
2013-10-03 18:32:00,63.9,26.4,30.11,NNW,335,8.0,24.0,24,0.00,,,0.00,meteohub,2013-10-04 01:32:00,
2013-10-03 18:37:00,63.7,26.2,30.11,NNE,12,12.0,19.0,24,0.00,,,0.00,meteohub,2013-10-04 01:37:00,
2013-10-03 18:42:00,63.3,27.0,30.11,NNE,21,3.0,19.0,25,0.00,,,0.00,meteohub,2013-10-04 01:42:00,
2013-10-03 18:47:00,63.0,26.6,30.11,NNE,24,7.0,18.0,25,0.00,,,0.00,meteohub,2013-10-04 01:47:00,
2013-10-03 18:52:00,63.0,26.6,30.11,NNE,22,8.0,18.0,25,0.00,,,0.00,meteohub,2013-10-04 01:52:00,
2013-10-03 18:57:00,62.8,27.3,30.11,North,355,5.0,20.0,26,0.00,,,0.00,meteohub,2013-10-04 01:57:00,
2013-10-03 19:02:00,62.4,27.1,30.11,NNE,17,13.0,20.0,26,0.00,,,0.00,meteohub,2013-10-04 02:02:00,
2013-10-03 19:07:00,62.2,27.0,30.11,ENE,78,10.0,20.0,26,0.00,,,0.00,meteohub,2013-10-04 02:07:00,
2013-10-03 19:12:00,62.4,27.1,30.12,ENE,71,7.0,17.0,26,0.00,,,0.00,meteohub,2013-10-04 02:12:00,
2013-10-03 19:17:00,62.1,26.8,30.12,NE,53,7.0,17.0,26,0.00,,,0.00,meteohub,2013-10-04 02:17:00,
2013-10-03 19:22:00,61.9,26.6,30.12,NE,43,9.0,17.0,26,0.00,,,0.00,meteohub,2013-10-04 02:22:00,
2013-10-03 19:27:00,61.9,26.6,30.12,NNE,26,6.0,15.0,26,0.00,,,0.00,meteohub,2013-10-04 02:27:00,
2013-10-03 19:32:00,61.7,26.4,30.12,NE,49,6.0,15.0,26,0.00,,,0.00,meteohub,2013-10-04 02:32:00,
2013-10-03 19:37:00,61.5,27.1,30.12,NNW,340,5.0,14.0,27,0.00,,,0.00,meteohub,2013-10-04 02:37:00,
2013-10-03 19:42:00,61.5,27.1,30.12,NE,53,12.0,16.0,27,0.00,,,0.00,meteohub,2013-10-04 02:42:00,
2013-10-03 19:47:00,61.3,27.1,30.12,NNE,18,7.0,16.0,27,0.00,,,0.00,meteohub,2013-10-04 02:47:00,
2013-10-03 19:52:00,61.3,27.9,30.12,NE,43,8.0,22.0,28,0.00,,,0.00,meteohub,2013-10-04 02:52:00,
2013-10-03 19:57:00,61.2,27.9,30.13,West,273,7.0,22.0,28,0.00,,,0.00,meteohub,2013-10-04 02:57:00,
2013-10-03 20:02:00,61.2,27.9,30.13,East,88,3.0,22.0,28,0.00,,,0.00,meteohub,2013-10-04 03:02:00,
2013-10-03 20:07:00,61.0,27.7,30.13,NNE,26,5.0,17.0,28,0.00,,,0.00,meteohub,2013-10-04 03:07:00,
2013-10-03 20:12:00,60.8,27.5,30.13,North,355,4.0,17.0,28,0.00,,,0.00,meteohub,2013-10-04 03:12:00,
2013-10-03 20:17:00,60.8,27.5,30.13,NNE,28,15.0,19.0,28,0.00,,,0.00,meteohub,2013-10-04 03:17:00,
2013-10-03 20:22:00,61.0,27.7,30.13,NNE,16,8.0,19.0,28,0.00,,,0.00,meteohub,2013-10-04 03:22:00,
2013-10-03 20:27:00,61.0,27.7,30.13,NNE,28,11.0,19.0,28,0.00,,,0.00,meteohub,2013-10-04 03:27:00,
2013-10-03 20:32:00,61.0,27.7,30.13,NE,52,9.0,24.0,28,0.00,,,0.00,meteohub,2013-10-04 03:32:00,
2013-10-03 20:37:00,61.0,28.6,30.14,NNE,22,3.0,24.0,29,0.00,,,0.00,meteohub,2013-10-04 03:37:00,
2013-10-03 20:42:00,60.8,28.4,30.13,North,5,8.0,24.0,29,0.00,,,0.00,meteohub,2013-10-04 03:42:00,
2013-10-03 20:47:00,61.0,28.6,30.13,NE,36,7.0,18.0,29,0.00,,,0.00,meteohub,2013-10-04 03:47:00,
2013-10-03 20:52:00,61.0,28.6,30.13,NNW,346,6.0,18.0,29,0.00,,,0.00,meteohub,2013-10-04 03:52:00,
2013-10-03 20:57:00,61.0,28.6,30.13,NE,42,7.0,18.0,29,0.00,,,0.00,meteohub,2013-10-04 03:57:00,
2013-10-03 21:32:00,61.0,27.7,30.14,ENE,61,10.0,21.0,28,0.00,,,0.00,meteohub,2013-10-04 04:32:00,
2013-10-03 21:33:00,61.2,27.9,30.14,NNE,19,10.0,21.0,28,0.00,,,0.00,meteohub,2013-10-04 04:33:00,
2013-10-03 21:34:00,61.2,27.9,30.14,NNE,32,9.0,21.0,28,0.00,,,0.00,meteohub,2013-10-04 04:34:00,
2013-10-03 21:35:00,61.2,27.9,30.14,NNE,19,11.0,21.0,28,0.00,,,0.00,meteohub,2013-10-04 04:35:00,
2013-10-03 21:37:00,61.2,28.6,30.14,NE,35,12.0,23.0,29,0.00,,,0.00,meteohub,2013-10-04 04:37:00,
2013-10-03 21:42:00,61.3,27.9,30.14,NNE,21,14.0,25.0,28,0.00,,,0.00,meteohub,2013-10-04 04:42:00,
2013-10-03 21:44:00,61.3,27.9,30.14,North,11,9.0,25.0,28,0.00,,,0.00,meteohub,2013-10-04 04:44:00,
2013-10-03 21:45:00,61.3,27.9,30.14,NNE,30,1.0,25.0,28,0.00,,,0.00,meteohub,2013-10-04 04:45:00,
2013-10-03 21:47:00,61.3,27.9,30.14,NE,51,6.0,25.0,28,0.00,,,0.00,meteohub,2013-10-04 04:47:00,
2013-10-03 21:49:00,61.3,27.9,30.14,NNW,344,12.0,25.0,28,0.00,,,0.00,meteohub,2013-10-04 04:49:00,
2013-10-03 21:54:00,61.3,27.9,30.14,NE,37,9.0,25.0,28,0.00,,,0.00,meteohub,2013-10-04 04:54:00,
2013-10-03 21:55:00,61.3,27.9,30.14,NE,55,11.0,19.0,28,0.00,,,0.00,meteohub,2013-10-04 04:55:00,
2013-10-03 21:56:00,61.3,27.9,30.14,SE,135,9.0,19.0,28,0.00,,,0.00,meteohub,2013-10-04 04:56:00,
2013-10-03 21:59:00,61.2,27.9,30.14,NE,36,11.0,19.0,28,0.00,,,0.00,meteohub,2013-10-04 04:59:00,
2013-10-03 22:01:00,61.2,27.9,30.14,NNE,26,12.0,19.0,28,0.00,,,0.00,meteohub,2013-10-04 05:01:00,
2013-10-03 22:02:00,61.2,27.9,30.14,NNE,22,5.0,19.0,28,0.00,,,0.00,meteohub,2013-10-04 05:02:00,
2013-10-03 22:03:00,61.2,27.9,30.14,North,355,6.0,19.0,28,0.00,,,0.00,meteohub,2013-10-04 05:03:00,
2013-10-03 22:05:00,61.2,27.9,30.14,North,9,6.0,19.0,28,0.00,,,0.00,meteohub,2013-10-04 05:05:00,
2013-10-03 22:08:00,61.2,27.9,30.14,NE,54,8.0,19.0,28,0.00,,,0.00,meteohub,2013-10-04 05:08:00,
2013-10-03 22:10:00,61.2,27.9,30.14,ENE,59,11.0,21.0,28,0.00,,,0.00,meteohub,2013-10-04 05:10:00,
2013-10-03 22:13:00,61.3,27.9,30.14,ENE,69,10.0,21.0,28,0.00,,,0.00,meteohub,2013-10-04 05:13:00,
2013-10-03 22:14:00,61.3,27.1,30.14,NE,40,10.0,21.0,27,0.00,,,0.00,meteohub,2013-10-04 05:14:00,
2013-10-03 22:17:00,61.3,27.9,30.14,NE,38,10.0,21.0,28,0.00,,,0.00,meteohub,2013-10-04 05:17:00,
2013-10-03 22:19:00,61.3,27.1,30.14,NE,52,11.0,21.0,27,0.00,,,0.00,meteohub,2013-10-04 05:19:00,
2013-10-03 22:25:00,61.3,27.9,30.14,NNE,13,10.0,20.0,28,0.00,,,0.00,meteohub,2013-10-04 05:25:00,
2013-10-03 22:27:00,61.3,27.9,30.14,NNW,346,11.0,20.0,28,0.00,,,0.00,meteohub,2013-10-04 05:27:00,
2013-10-03 22:32:00,61.0,27.7,30.14,NE,46,6.0,20.0,28,0.00,,,0.00,meteohub,2013-10-04 05:32:00,
2013-10-03 22:37:00,61.0,27.7,30.14,NE,50,7.0,20.0,28,0.00,,,0.00,meteohub,2013-10-04 05:37:00,
2013-10-03 22:42:00,61.0,27.7,30.15,NNE,30,4.0,19.0,28,0.00,,,0.00,meteohub,2013-10-04 05:42:00,
2013-10-03 22:47:00,61.0,27.7,30.15,NE,55,6.0,19.0,28,0.00,,,0.00,meteohub,2013-10-04 05:47:00,
2013-10-03 22:52:00,61.0,26.8,30.15,ENE,65,7.0,19.0,27,0.00,,,0.00,meteohub,2013-10-04 05:52:00,
2013-10-03 22:57:00,61.0,27.7,30.15,ENE,74,9.0,18.0,28,0.00,,,0.00,meteohub,2013-10-04 05:57:00,
2013-10-03 23:02:00,61.0,27.7,30.14,North,5,6.0,18.0,28,0.00,,,0.00,meteohub,2013-10-04 06:02:00,
2013-10-03 23:07:00,60.8,27.5,30.15,NE,37,9.0,18.0,28,0.00,,,0.00,meteohub,2013-10-04 06:07:00,
2013-10-03 23:12:00,60.8,27.5,30.14,NNE,29,9.0,19.0,28,0.00,,,0.00,meteohub,2013-10-04 06:12:00,
2013-10-03 23:17:00,60.8,27.5,30.15,NNE,17,8.0,19.0,28,0.00,,,0.00,meteohub,2013-10-04 06:17:00,
2013-10-03 23:22:00,60.8,27.5,30.14,NNE,16,5.0,20.0,28,0.00,,,0.00,meteohub,2013-10-04 06:22:00,
2013-10-03 23:27:00,60.6,27.3,30.14,ENE,60,18.0,20.0,28,0.00,,,0.00,meteohub,2013-10-04 06:27:00,
2013-10-03 23:32:00,60.6,27.3,30.14,NNW,347,7.0,20.0,28,0.00,,,0.00,meteohub,2013-10-04 06:32:00,
2013-10-03 23:37:00,60.6,27.3,30.14,NE,50,10.0,20.0,28,0.00,,,0.00,meteohub,2013-10-04 06:37:00,
2013-10-03 23:42:00,60.6,27.3,30.14,NNE,30,8.0,20.0,28,0.00,,,0.00,meteohub,2013-10-04 06:42:00,
2013-10-03 23:47:00,60.6,27.3,30.14,NNE,15,6.0,19.0,28,0.00,,,0.00,meteohub,2013-10-04 06:47:00,
2013-10-03 23:52:00,60.4,27.1,30.15,North,355,9.0,19.0,28,0.00,,,0.00,meteohub,2013-10-04 06:52:00,
2013-10-03 23:57:00,60.4,27.1,30.15,NNE,33,18.0,18.0,28,0.00,,,0.00,meteohub,2013-10-04 06:57:00,